�������l�o���
Date,Time,MP-1(��Sv/h),MP-2(��Sv/h),MP-3(��Sv/h),MP-4(��Sv/h),MP-5(��Sv/h),MP-6(��Sv/h),MP-7(��Sv/h),MP-8(��Sv/h),����,����(m/s),���J
2021/10/29,00:00,0.577,0.866,0.552,1.049,0.739,0.353,0.616,0.577,�k��,11.1,��
2021/10/29,00:10,0.576,0.865,0.551,1.050,0.738,0.355,0.615,0.578,�k��,9.7,��
2021/10/29,00:20,0.579,0.865,0.550,1.052,0.738,0.354,0.616,0.578,�k��,10.5,��
2021/10/29,00:30,0.577,0.865,0.551,1.051,0.736,0.354,0.615,0.578,�k��,9.3,��
2021/10/29,00:40,0.576,0.866,0.551,1.054,0.739,0.352,0.615,0.578,�k�k��,8.7,��
2021/10/29,00:50,0.577,0.865,0.550,1.053,0.737,0.353,0.615,0.577,�k�k��,6.4,��
2021/10/29,01:00,0.576,0.865,0.552,1.052,0.736,0.354,0.614,0.578,�k�k��,6.1,��
2021/10/29,01:10,0.578,0.866,0.549,1.052,0.740,0.353,0.617,0.578,�k�k��,7.3,��
2021/10/29,01:20,0.577,0.865,0.550,1.052,0.738,0.353,0.614,0.577,�k��,7.1,��
2021/10/29,01:30,0.577,0.866,0.551,1.052,0.737,0.354,0.616,0.579,�k��,7.7,��
2021/10/29,01:40,0.576,0.866,0.550,1.053,0.738,0.355,0.616,0.577,�k�k��,8.9,��
2021/10/29,01:50,0.578,0.866,0.551,1.052,0.737,0.354,0.614,0.578,�k�k��,8.8,��
2021/10/29,02:00,0.578,0.864,0.549,1.052,0.738,0.354,0.615,0.577,�k�k��,8.5,��
2021/10/29,02:10,0.578,0.865,0.551,1.057,0.737,0.353,0.615,0.578,�k��,9.4,��
2021/10/29,02:20,0.578,0.863,0.550,1.052,0.739,0.355,0.614,0.577,�k��,9.5,��
2021/10/29,02:30,0.578,0.866,0.550,1.053,0.739,0.354,0.616,0.577,�k��,9.2,��
2021/10/29,02:40,0.577,0.865,0.551,1.051,0.739,0.354,0.614,0.578,�k��,8.7,��
2021/10/29,02:50,0.576,0.864,0.551,1.053,0.739,0.352,0.612,0.577,�k��,9.3,��
2021/10/29,03:00,0.578,0.866,0.548,1.053,0.739,0.354,0.614,0.578,�k��,8.6,��
2021/10/29,03:10,0.576,0.866,0.551,1.054,0.739,0.353,0.615,0.578,�k��,7.7,��
2021/10/29,03:20,0.577,0.865,0.551,1.052,0.739,0.353,0.612,0.579,�k��,5.9,��
2021/10/29,03:30,0.577,0.865,0.551,1.052,0.740,0.353,0.614,0.577,�k��,5.7,��
2021/10/29,03:40,0.578,0.867,0.549,1.052,0.739,0.354,0.615,0.578,�k��,4.9,��
2021/10/29,03:50,0.579,0.866,0.549,1.054,0.739,0.353,0.615,0.578,�k��,6.2,��
2021/10/29,04:00,0.577,0.864,0.551,1.051,0.738,0.353,0.614,0.579,�k��,4.8,��
2021/10/29,04:10,0.577,0.864,0.548,1.051,0.737,0.354,0.614,0.579,�k��,5.6,��
2021/10/29,04:20,0.577,0.866,0.551,1.052,0.738,0.355,0.613,0.578,�k��,5.5,��
2021/10/29,04:30,0.577,0.865,0.549,1.052,0.738,0.353,0.613,0.578,�k��,6.0,��
2021/10/29,04:40,0.577,0.864,0.551,1.053,0.738,0.353,0.615,0.577,�k��,6.7,��
2021/10/29,04:50,0.576,0.866,0.551,1.052,0.739,0.353,0.614,0.578,�k��,6.1,��
2021/10/29,05:00,0.576,0.865,0.549,1.051,0.738,0.353,0.614,0.579,�k��,4.9,��
2021/10/29,05:10,0.577,0.863,0.550,1.051,0.737,0.353,0.615,0.578,�k�k��,4.7,��
2021/10/29,05:20,0.577,0.865,0.549,1.052,0.738,0.353,0.613,0.576,�k��,5.3,��
2021/10/29,05:30,0.577,0.864,0.550,1.053,0.740,0.353,0.615,0.576,�k��,4.9,��
2021/10/29,05:40,0.579,0.864,0.551,1.053,0.738,0.353,0.614,0.579,�k��,4.9,��
2021/10/29,05:50,0.577,0.866,0.550,1.052,0.737,0.353,0.613,0.577,�k��,5.0,��
2021/10/29,06:00,0.576,0.863,0.549,1.052,0.739,0.354,0.613,0.578,�k��,4.6,��
2021/10/29,06:10,0.577,0.865,0.548,1.051,0.739,0.353,0.614,0.578,�k��,4.3,��
2021/10/29,06:20,0.578,0.863,0.550,1.053,0.736,0.352,0.613,0.577,�k��,4.0,��
2021/10/29,06:30,0.576,0.866,0.548,1.052,0.739,0.353,0.614,0.578,�k��,4.7,��
2021/10/29,06:40,0.576,0.864,0.551,1.052,0.738,0.352,0.614,0.577,�k��,6.1,��
2021/10/29,06:50,0.577,0.864,0.552,1.051,0.737,0.353,0.614,0.578,�k��,6.4,��
2021/10/29,07:00,0.576,0.865,0.549,1.052,0.740,0.354,0.614,0.576,�k��,6.0,��
2021/10/29,07:10,0.578,0.866,0.550,1.055,0.737,0.353,0.614,0.578,�k��,5.5,��
2021/10/29,07:20,0.575,0.865,0.550,1.052,0.739,0.352,0.614,0.578,�k��,5.3,��
2021/10/29,07:30,0.576,0.864,0.549,1.051,0.740,0.354,0.615,0.576,�k��,5.5,��
2021/10/29,07:40,0.577,0.865,0.550,1.052,0.738,0.354,0.615,0.578,�k��,5.8,��
2021/10/29,07:50,0.577,0.866,0.550,1.052,0.740,0.352,0.614,0.576,�k�k��,4.8,��
2021/10/29,08:00,0.577,0.864,0.549,1.051,0.738,0.348,0.615,0.577,�k��,5.3,��
2021/10/29,08:10,0.577,0.864,0.548,1.053,0.739,0.349,0.616,0.578,�k��,5.1,��
2021/10/29,08:20,0.577,0.865,0.550,1.051,0.739,0.351,0.615,0.578,�k��,3.8,��
2021/10/29,08:30,0.577,0.865,0.553,1.054,0.738,0.350,0.616,0.578,�k�k��,5.1,��
2021/10/29,08:40,0.578,0.865,0.551,1.055,0.740,0.350,0.616,0.578,�k�k��,5.4,��
2021/10/29,08:50,0.577,0.863,0.549,1.054,0.739,0.353,0.613,0.578,�k�k��,6.2,��
2021/10/29,09:00,0.580,0.862,0.551,1.054,0.737,0.354,0.615,0.578,�k,7.7,��
2021/10/29,09:10,0.577,0.863,0.552,1.056,0.739,0.354,0.615,0.578,�k,6.1,��
2021/10/29,09:20,0.576,0.863,0.551,1.056,0.739,0.354,0.614,0.579,�k,5.2,��
2021/10/29,09:30,0.577,0.863,0.552,1.053,0.741,0.355,0.617,0.579,�k�k��,6.7,��
2021/10/29,09:40,0.576,0.864,0.552,1.056,0.740,0.354,0.614,0.578,�k�k��,8.4,��
2021/10/29,09:50,0.578,0.862,0.552,1.053,0.739,0.352,0.615,0.580,�k�k��,8.5,��
2021/10/29,10:00,0.577,0.863,0.552,1.055,0.740,0.354,0.614,0.582,�k�k��,9.4,��
2021/10/29,10:10,0.577,0.864,0.553,1.055,0.740,0.353,0.614,0.579,�k�k��,9.3,��
2021/10/29,10:20,0.576,0.865,0.552,1.055,0.739,0.354,0.614,0.578,�k�k��,11.0,��
2021/10/29,10:30,0.578,0.863,0.551,1.055,0.739,0.351,0.612,0.576,�k�k��,10.0,��
2021/10/29,10:40,0.577,0.866,0.550,1.056,0.738,0.353,0.615,0.579,�k�k��,12.4,��
2021/10/29,10:50,0.579,0.863,0.551,1.057,0.740,0.353,0.614,0.578,�k�k��,11.7,��
2021/10/29,11:00,0.581,0.863,0.551,1.056,0.741,0.353,0.613,0.578,�k�k��,14.1,��
2021/10/29,11:10,0.579,0.862,0.551,1.056,0.739,0.353,0.615,0.579,�k�k��,9.1,��
2021/10/29,11:20,0.579,0.866,0.553,1.055,0.739,0.352,0.613,0.581,�k�k��,12.0,��
2021/10/29,11:30,0.580,0.868,0.550,1.056,0.741,0.354,0.614,0.580,�k�k��,13.3,��
2021/10/29,11:40,0.580,0.868,0.553,1.057,0.741,0.353,0.616,0.580,�k,11.6,��
2021/10/29,11:50,0.581,0.867,0.552,1.059,0.742,0.354,0.614,0.580,�k�k��,12.4,��
2021/10/29,12:00,0.579,0.868,0.553,1.056,0.741,0.354,0.614,0.580,�k,8.7,��
2021/10/29,12:10,0.580,0.868,0.553,1.059,0.742,0.355,0.613,0.580,�k�k��,12.5,��
2021/10/29,12:20,0.580,0.868,0.551,1.059,0.741,0.355,0.615,0.579,�k�k��,10.0,��
2021/10/29,12:30,0.580,0.868,0.551,1.059,0.741,0.355,0.614,0.580,�k�k��,11.6,��
2021/10/29,12:40,0.580,0.868,0.551,1.060,0.741,0.355,0.614,0.579,�k�k��,11.3,��
2021/10/29,12:50,0.581,0.869,0.552,1.060,0.744,0.355,0.615,0.578,�k�k��,9.2,��
2021/10/29,13:00,0.582,0.867,0.552,1.062,0.741,0.356,0.614,0.579,�k�k��,10.2,��
2021/10/29,13:10,0.581,0.867,0.552,1.059,0.741,0.355,0.614,0.580,�k�k��,9.2,��
2021/10/29,13:20,0.580,0.867,0.551,1.059,0.745,0.354,0.615,0.579,�k�k��,12.7,��
2021/10/29,13:30,0.583,0.866,0.553,1.059,0.743,0.355,0.615,0.579,�k�k��,12.2,��
2021/10/29,13:40,0.582,0.866,0.552,1.060,0.743,0.353,0.615,0.577,�k�k��,11.0,��
2021/10/29,13:50,0.580,0.867,0.552,1.062,0.744,0.355,0.615,0.579,�k,11.8,��
2021/10/29,14:00,0.583,0.865,0.552,1.061,0.744,0.354,0.614,0.578,�k�k��,8.5,��
2021/10/29,14:10,0.580,0.868,0.553,1.061,0.743,0.353,0.614,0.578,�k��,9.8,��
2021/10/29,14:20,0.581,0.869,0.553,1.059,0.745,0.355,0.615,0.578,�k�k��,10.4,��
2021/10/29,14:30,0.580,0.867,0.552,1.063,0.743,0.355,0.616,0.578,�k,10.0,��
2021/10/29,14:40,0.579,0.869,0.553,1.059,0.743,0.354,0.614,0.578,�k�k��,9.6,��
2021/10/29,14:50,0.580,0.867,0.553,1.061,0.743,0.354,0.616,0.579,�k�k��,6.9,��
2021/10/29,15:00,0.581,0.869,0.553,1.062,0.741,0.355,0.613,0.578,�k�k��,7.2,��
2021/10/29,15:10,0.581,0.869,0.552,1.062,0.745,0.354,0.614,0.578,�k�k��,7.6,��
2021/10/29,15:20,0.579,0.868,0.552,1.061,0.745,0.355,0.615,0.578,�k�k��,7.7,��
2021/10/29,15:30,0.579,0.870,0.553,1.062,0.742,0.354,0.613,0.579,�k,8.1,��
2021/10/29,15:40,0.581,0.870,0.553,1.063,0.745,0.355,0.616,0.579,�k,7.9,��
2021/10/29,15:50,0.581,0.868,0.553,1.063,0.743,0.355,0.615,0.581,�k,6.7,��
2021/10/29,16:00,0.580,0.871,0.552,1.064,0.745,0.357,0.616,0.581,�k,7.2,��
2021/10/29,16:10,0.579,0.869,0.554,1.063,0.742,0.355,0.616,0.581,�k,7.1,��
2021/10/29,16:20,0.579,0.870,0.554,1.064,0.744,0.357,0.616,0.582,�k,6.4,��
2021/10/29,16:30,0.581,0.871,0.553,1.061,0.743,0.356,0.616,0.582,�k,7.1,��
2021/10/29,16:40,0.579,0.871,0.551,1.062,0.742,0.356,0.615,0.582,�k,7.1,��
2021/10/29,16:50,0.579,0.872,0.552,1.063,0.745,0.354,0.616,0.581,�k�k��,7.7,��
2021/10/29,17:00,0.580,0.875,0.551,1.063,0.744,0.356,0.616,0.581,�k�k��,7.2,��
2021/10/29,17:10,0.581,0.873,0.553,1.063,0.746,0.357,0.615,0.581,�k�k��,6.6,��
2021/10/29,17:20,0.582,0.872,0.554,1.062,0.745,0.355,0.615,0.582,�k�k��,5.7,��
2021/10/29,17:30,0.582,0.873,0.555,1.063,0.747,0.356,0.616,0.583,�k��,5.0,��
2021/10/29,17:40,0.582,0.874,0.554,1.062,0.745,0.355,0.614,0.581,�k�k��,6.1,��
2021/10/29,17:50,0.582,0.874,0.553,1.063,0.744,0.355,0.616,0.580,�k�k��,6.5,��
2021/10/29,18:00,0.582,0.874,0.555,1.063,0.746,0.357,0.616,0.581,�k�k��,5.6,��
2021/10/29,18:10,0.582,0.873,0.555,1.063,0.746,0.355,0.616,0.581,�k�k��,6.1,��
2021/10/29,18:20,0.581,0.872,0.554,1.064,0.746,0.356,0.616,0.581,�k�k��,6.3,��
2021/10/29,18:30,0.582,0.871,0.555,1.063,0.747,0.355,0.615,0.579,�k�k��,5.9,��
2021/10/29,18:40,0.581,0.871,0.555,1.063,0.744,0.356,0.616,0.580,�k�k��,6.3,��
2021/10/29,18:50,0.583,0.872,0.555,1.062,0.746,0.357,0.617,0.581,�k�k��,6.4,��
2021/10/29,19:00,0.581,0.874,0.556,1.059,0.745,0.355,0.616,0.580,�k�k��,6.5,��
2021/10/29,19:10,0.582,0.873,0.554,1.058,0.745,0.355,0.617,0.581,�k�k��,6.6,��
2021/10/29,19:20,0.582,0.874,0.554,1.060,0.746,0.355,0.616,0.580,�k�k��,5.8,��
2021/10/29,19:30,0.582,0.871,0.555,1.060,0.747,0.354,0.614,0.580,�k��,6.9,��
2021/10/29,19:40,0.581,0.872,0.552,1.055,0.746,0.355,0.616,0.580,�k�k��,6.6,��
2021/10/29,19:50,0.583,0.869,0.554,1.058,0.747,0.356,0.617,0.581,�k��,6.7,��
2021/10/29,20:00,0.583,0.872,0.554,1.059,0.745,0.355,0.617,0.580,�k��,6.4,��
2021/10/29,20:10,0.583,0.872,0.554,1.060,0.746,0.355,0.614,0.580,�k��,6.6,��
2021/10/29,20:20,0.582,0.872,0.554,1.062,0.745,0.355,0.615,0.580,�k��,6.5,��
2021/10/29,20:30,0.581,0.873,0.553,1.063,0.747,0.355,0.616,0.580,�k��,6.8,��
2021/10/29,20:40,0.581,0.872,0.553,1.064,0.746,0.354,0.615,0.580,�k��,6.8,��
2021/10/29,20:50,0.582,0.872,0.552,1.062,0.746,0.355,0.616,0.581,�k��,7.3,��
2021/10/29,21:00,0.581,0.870,0.552,1.064,0.745,0.354,0.617,0.579,�k��,6.9,��
2021/10/29,21:10,0.580,0.874,0.554,1.064,0.746,0.355,0.616,0.582,�k��,7.5,��
2021/10/29,21:20,0.582,0.871,0.553,1.064,0.745,0.355,0.617,0.579,�k��,6.8,��
2021/10/29,21:30,0.582,0.871,0.554,1.063,0.746,0.353,0.615,0.580,�k��,6.5,��
2021/10/29,21:40,0.582,0.872,0.555,1.060,0.747,0.355,0.615,0.580,�k��,6.2,��
2021/10/29,21:50,0.582,0.874,0.553,1.062,0.747,0.355,0.614,0.579,�k��,6.2,��
2021/10/29,22:00,0.581,0.872,0.554,1.062,0.745,0.355,0.618,0.579,�k��,7.0,��
2021/10/29,22:10,0.581,0.873,0.554,1.061,0.744,0.353,0.616,0.579,�k��,7.6,��
2021/10/29,22:20,0.581,0.871,0.553,1.059,0.744,0.354,0.617,0.579,�k��,6.5,��
2021/10/29,22:30,0.581,0.869,0.554,1.058,0.746,0.354,0.617,0.579,�k��,7.0,��
2021/10/29,22:40,0.582,0.870,0.551,1.060,0.746,0.354,0.615,0.578,�k��,6.4,��
2021/10/29,22:50,0.582,0.870,0.554,1.059,0.746,0.355,0.618,0.581,�k��,6.6,��
2021/10/29,23:00,0.581,0.871,0.553,1.057,0.745,0.355,0.616,0.580,�k��,6.0,��
2021/10/29,23:10,0.580,0.872,0.554,1.061,0.745,0.354,0.617,0.580,�k��,6.8,��
2021/10/29,23:20,0.581,0.871,0.553,1.062,0.744,0.354,0.617,0.579,�k��,7.3,��
2021/10/29,23:30,0.581,0.870,0.553,1.059,0.745,0.354,0.618,0.578,�k��,7.7,��
2021/10/29,23:40,0.582,0.871,0.554,1.062,0.745,0.355,0.617,0.580,���k��,7.4,��
2021/10/29,23:50,0.580,0.873,0.554,1.065,0.746,0.355,0.617,0.580,���k��,8.4,��
